Location: Julian California
(33.0790°N, 116.6010°W)
Time: 00:38:21
(UTC-07:00)

ASTRO E2 - Pass Details

Date: 14 June 2018
Orbit: 513 x 519 km, 31.4° (Epoch: 21 June)

Event Time Altitude Azimuth Distance (km) Brightness Sun altitude
Rises 20:21:55 0° 269° (W) 2,607 7.3 -5.4°
Reaches altitude 10° 20:24:09 10° 267° (W) 1,722 6.3 -5.8°
Maximum altitude 20:28:06 67° 184° (S) 552 2.7 -6.5°
Drops below altitude 10° 20:32:02 10° 102° (ESE) 1,724 4.8 -7.2°
Enters shadow 20:32:35 - 101° (E) 1,936 5.0 -7.3°
